Flag for Sweden Weather past 2 weeks in Södertälje, Sweden

Now
28 °F

Snow flurries. Low clouds.


Feels Like: 20 °F
Forecast: 20 / 34 °F
Wind: 8 mph from South

Location: Stockholm Bromma Airport

Current Time: Jan 26, 2015 at 7:24:10 AM

Latest Report: Jan 26, 2015 at 6:50 AM


Visibility: N/A

Pressure: 29.98 "Hg

Humidity: 86%

Dew point: 25 °F

Location of SödertäljeLocation

Historic Weather in Södertälje — Graph

°F

Södertälje temperature yesterday

Maximum temperature yesterday: 34 °F (at 1:50 PM)
Minimum temperature yesterday: 30 °F (at 6:20 AM)
Average temperature yesterday: 32 °F

Past Weeks' High & Low Weather Summary

 TemperatureHumidityPressure
High43 °F (Jan 16, 2:20 PM)100% (Jan 11, 7:20 AM)30.24 "Hg (Jan 11, 7:20 AM)
Low16 °F (Jan 23, 7:50 PM)65% (Jan 13, 7:50 AM)28.50 "Hg (Jan 11, 6:20 AM)
Average33 °F87%29.71 "Hg
* Reported Jan 11 6:20 AM — Jan 26 6:20 AM, Södertälje, Weather by CustomWeather, © 2014

Note: Actual official high and low records may vary slightly from our data, if they occured in-between our weather recording intervals... More about our weather records

Advertising

Södertälje weather history for previous 24 hours

 ConditionsComfort  
Time TempWeatherWind HumidityBarometerVisibility
6:20 AM
Jan 26
28 °FSnow flurries. Low clouds.7 mph86%30.01 "HgN/A
5:50 AM28 °FLow clouds.7 mph93%30.01 "HgN/A
5:20 AM28 °FLow clouds.9 mph93%30.04 "HgN/A
4:50 AM28 °FLow clouds.8 mph93%30.04 "HgN/A
4:20 AM28 °FLow clouds.10 mph93%30.04 "HgN/A
3:50 AM28 °FLow clouds.8 mph93%30.04 "HgN/A
3:20 AM28 °FLow clouds.8 mph93%30.04 "HgN/A
2:50 AM28 °FLow clouds.9 mph93%30.07 "HgN/A
2:20 AM28 °FLow clouds.7 mph93%30.07 "HgN/A
1:50 AM28 °FLow clouds.8 mph93%30.09 "HgN/A
1:20 AM28 °FLow clouds.8 mph93%30.09 "HgN/A
12:50 AM28 °FLow clouds.8 mph93%30.09 "HgN/A
12:20 AM28 °FLow clouds.9 mph93%30.09 "HgN/A
11:50 PM
Jan 25
30 °FLow clouds.7 mph86%30.09 "HgN/A
11:20 PM30 °FOvercast.5 mph86%30.09 "HgN/A
10:20 PM30 °FOvercast.5 mph86%30.12 "HgN/A
9:50 PM30 °FPassing clouds.5 mph86%30.12 "HgN/A
9:20 PM30 °FPassing clouds.5 mph86%30.12 "HgN/A
8:50 PM32 °FPassing clouds.3 mph80%30.12 "HgN/A
8:20 PM32 °FPassing clouds.5 mph87%30.12 "HgN/A
7:50 PM32 °FPassing clouds.3 mph87%30.12 "HgN/A
7:20 PM32 °FPassing clouds.5 mph87%30.12 "HgN/A
6:50 PM32 °FPassing clouds.3 mph87%30.12 "HgN/A
6:20 PM32 °FPassing clouds.3 mph80%30.12 "HgN/A
5:50 PM32 °FPassing clouds.3 mph80%30.12 "HgN/A
5:20 PM32 °FPassing clouds.5 mph80%30.12 "HgN/A
4:50 PM32 °FPassing clouds.7 mph80%30.12 "HgN/A
4:20 PM32 °FPassing clouds.7 mph80%30.09 "HgN/A
3:50 PM32 °FPassing clouds.7 mph80%30.09 "HgN/A
3:20 PM32 °FPartly sunny.6 mph80%30.09 "HgN/A
2:50 PM32 °FPartly sunny.7 mph80%30.09 "HgN/A
2:20 PM34 °FPartly sunny.7 mph81%30.07 "HgN/A
1:50 PM34 °FPartly sunny.5 mph87%30.07 "HgN/A
1:20 PM32 °FPartly sunny.5 mph93%30.07 "HgN/A
12:50 PM32 °FPartly sunny.6 mph93%30.07 "Hg5 mi
12:20 PM32 °FIce fog.3 mph93%30.07 "Hg5 mi
11:50 AM32 °FIce fog.3 mph93%30.07 "Hg4 mi
11:20 AM32 °FIce fog.3 mph93%30.07 "Hg4 mi
10:50 AM32 °FIce fog.2 mph93%30.07 "Hg5 mi
10:20 AM32 °FIce fog.2 mph93%30.04 "Hg5 mi
9:50 AM32 °FIce fog.2 mph93%30.04 "Hg5 mi
9:20 AM32 °FIce fog.2 mph93%30.04 "Hg5 mi
8:50 AM32 °FIce fog.1 mph93%30.01 "Hg6 mi
8:20 AM32 °FLow clouds.2 mph93%30.01 "Hg6 mi
7:50 AM30 °FLow clouds.2 mph100%30.01 "Hg6 mi
7:20 AM30 °FIce fog.1 mph100%29.98 "Hg6 mi
Weather by CustomWeather, © 2014

See weather overviewHow to use our weather pages